Weather History for Almeria, Spain

Change the Weather History Date:

Thursday, November 29, 2012

  Actual Average Record
Temperature  
Mean Temperature 59 °F -  
Max Temperature 64 °F 60 °F 68 °F (1997)
Min Temperature 54 °F 48 °F 44 °F (2010)
Degree Days  
Heating Degree Days 6    
Growing Degree Days 9 (Base 50)    
Moisture  
Dew Point 29 °F    
Average Humidity 30    
Maximum Humidity 42    
Minimum Humidity 13    
Precipitation  
Precipitation 0.00 in 0.03 in - ()
Sea Level Pressure  
Sea Level Pressure 29.82 in    
Wind  
Wind Speed 15 mph ()    
Max Wind Speed 22 mph    
Max Gust Speed 36 mph    
Visibility 6.8 miles    
Events      
Averages and records for this station are not official NWS values.
T = Trace of Precipitation, MM = Missing Value Source: Averaged Metar Reports

Daily Weather History Graph

Daily Weather History Graph

Search for Another Location

Airport:

Trip Planner

Search our weather history database for the weather conditions in past years. The results will help you decide how hot, cold, wet, or windy it might be!

Date:

Astronomy

Nov. 29, 2012 Rise Set
Actual Time 8:02 AM CET 5:53 PM CET
Civil Twilight 7:33 AM CET 6:22 PM CET
Nautical Twilight 7:01 AM CET 6:53 PM CET
Astronomical Twilight 6:30 AM CET 7:25 PM CET
Moon 6:44 PM CET (11/29) 8:37 AM CET (11/29)
Length of Visible Light 10h 48m
Length of Day
9h 51m
Full, 99% of the Moon is Illuminated
Nov 29
Full
Dec 6
Last Quarter
Dec 13
New
Dec 20
First Quarter
Dec 28
Full

Hourly Weather History & Observations

Time (CET) Temp. Dew Point Humidity Pressure Visibility Wind Dir Wind Speed Gust Speed Precip Events Conditions
1:00 AM 56 °F 25 °F 19% 29.81 in - NW 11.5 mph - -  
5:00 AM 57.2 °F 30.2 °F 36% 29.80 in - NW 8.1 mph - N/A   Clear
5:30 AM 57.2 °F 28.4 °F 33% 29.80 in - NNW 11.5 mph - N/A   Clear
6:00 AM 57.2 °F 30.2 °F 36% 29.80 in - NW 12.7 mph - N/A   Clear
6:30 AM 57.2 °F 28.4 °F 33% 29.80 in - NNW 16.1 mph - N/A   Clear
7:00 AM 56 °F 28 °F 22% 29.81 in 19 mi NNW 21.9 mph - -  
7:00 AM 57.2 °F 30.2 °F 36% 29.80 in - NNW 20.7 mph 32.2 mph N/A   Clear
7:30 AM 57.2 °F 32.0 °F 38% 29.80 in - North 16.1 mph - N/A   Clear
8:00 AM 55.4 °F 32.0 °F 41% 29.80 in 6.2 mi North 13.8 mph - N/A   Partly Cloudy
8:30 AM 57.2 °F 32.0 °F 38% 29.83 in 6.2 mi NNW 13.8 mph - N/A   Partly Cloudy
9:00 AM 57.2 °F 30.2 °F 36% 29.83 in 6.2 mi NW 20.7 mph 33.4 mph N/A   Partly Cloudy
9:30 AM 59.0 °F 32.0 °F 36% 29.83 in 6.2 mi NW 16.1 mph - N/A   Partly Cloudy
10:00 AM 59.0 °F 30.2 °F 34% 29.83 in 6.2 mi NW 20.7 mph 32.2 mph N/A   Partly Cloudy
10:30 AM 60.8 °F 30.2 °F 31% 29.86 in 6.2 mi NNW 20.7 mph 32.2 mph N/A   Partly Cloudy
11:00 AM 60.8 °F 30.2 °F 31% 29.86 in 6.2 mi NW 19.6 mph - N/A   Partly Cloudy
11:30 AM 60.8 °F 28.4 °F 29% 29.83 in 6.2 mi NW 21.9 mph - N/A   Partly Cloudy
12:00 PM 62.6 °F 28.4 °F 27% 29.83 in 6.2 mi NW 20.7 mph - N/A   Partly Cloudy
12:30 PM 62.6 °F 28.4 °F 27% 29.83 in 6.2 mi NW 18.4 mph - N/A   Partly Cloudy
1:00 PM 62 °F 24 °F 13% 29.83 in 25 mi NW 19.6 mph - -   Scattered Clouds
1:00 PM 64.4 °F 26.6 °F 24% 29.83 in 6.2 mi NW 18.4 mph 29.9 mph N/A   Partly Cloudy
1:30 PM 64.4 °F 33.8 °F 32% 29.83 in 6.2 mi West 12.7 mph - N/A   Partly Cloudy
2:00 PM 62.6 °F 39.2 °F 42% 29.80 in 6.2 mi WSW 12.7 mph - N/A   Partly Cloudy
2:30 PM 62.6 °F 37.4 °F 39% 29.80 in 6.2 mi Variable 11.5 mph - N/A   Partly Cloudy
3:00 PM 64.4 °F 24.8 °F 22% 29.80 in 6.2 mi NW 20.7 mph 33.4 mph N/A   Partly Cloudy
3:30 PM 64.4 °F 26.6 °F 24% 29.80 in 6.2 mi NW 18.4 mph 31.1 mph N/A   Partly Cloudy
4:00 PM 64.4 °F 28.4 °F 26% 29.80 in 6.2 mi NW 17.3 mph 29.9 mph N/A   Partly Cloudy
4:30 PM 64.4 °F 28.4 °F 26% 29.80 in 6.2 mi NW 17.3 mph - N/A   Partly Cloudy
5:00 PM 62.6 °F 26.6 °F 26% 29.80 in 6.2 mi NW 20.7 mph 35.7 mph N/A   Partly Cloudy
5:30 PM 60.8 °F 26.6 °F 27% 29.80 in 6.2 mi NW 19.6 mph - N/A   Partly Cloudy
6:00 PM 60.8 °F 24.8 °F 25% 29.83 in 6.2 mi NW 19.6 mph 31.1 mph N/A   Partly Cloudy
6:30 PM 59.0 °F 24.8 °F 27% 29.83 in 6.2 mi NW 19.6 mph 32.2 mph N/A   Partly Cloudy
7:00 PM 58 °F 24 °F 16% 29.83 in 25 mi NW 18.4 mph - -   Scattered Clouds
7:00 PM 59.0 °F 24.8 °F 27% 29.83 in - NW 17.3 mph - N/A   Clear
7:30 PM 59.0 °F 26.6 °F 29% 29.83 in - NW 21.9 mph - N/A   Clear
8:00 PM 59.0 °F 26.6 °F 29% 29.83 in - NW 18.4 mph 32.2 mph N/A   Clear
8:30 PM 59.0 °F 26.6 °F 29% 29.83 in - WNW 17.3 mph - N/A   Clear
9:00 PM 59.0 °F 28.4 °F 31% 29.83 in - NW 18.4 mph - N/A   Clear
9:30 PM 57.2 °F 28.4 °F 33% 29.83 in - NW 16.1 mph - N/A   Clear
10:00 PM 57.2 °F 28.4 °F 33% 29.83 in - NW 16.1 mph - N/A   Clear
10:30 PM 57.2 °F 28.4 °F 33% 29.83 in - NW 16.1 mph - N/A   Clear